Time,TemperatureF,DewpointF,PressureIn,WindDirection,WindDirectionDegrees,WindSpeedMPH,WindSpeedGustMPH,Humidity,HourlyPrecipIn,Conditions,Clouds,dailyrainin,SoftwareType,DateUTC
2013-06-03 00:03:00,58.0,53.0,29.90,NNW,327,1.0,7.0,83,0.00,,,0.56,,2013-06-03 04:03:00,
2013-06-03 00:13:00,58.0,53.0,29.90,NNW,327,1.0,7.0,83,0.00,,,0.56,,2013-06-03 04:13:00,
2013-06-03 00:23:00,58.0,53.0,29.90,NNE,13,2.0,7.0,83,0.00,,,0.45,,2013-06-03 04:23:00,
2013-06-03 00:33:00,57.0,52.0,29.90,North,355,2.0,9.0,84,0.00,,,0.45,,2013-06-03 04:33:00,
2013-06-03 00:42:00,57.0,52.0,29.90,North,355,2.0,9.0,84,0.00,,,0.45,,2013-06-03 04:42:00,
2013-06-03 00:53:00,56.0,51.0,29.91,NNE,15,5.0,9.0,83,0.00,,,0.45,,2013-06-03 04:53:00,
2013-06-03 01:02:00,56.0,51.0,29.91,NNE,32,1.0,8.0,83,0.00,,,0.45,,2013-06-03 05:02:00,
2013-06-03 01:12:00,56.0,51.0,29.91,NNE,32,1.0,8.0,83,0.00,,,0.45,,2013-06-03 05:12:00,
2013-06-03 01:22:00,55.0,49.0,29.91,NNW,342,4.0,10.0,81,0.00,,,0.02,,2013-06-03 05:22:00,
2013-06-03 01:32:00,55.0,49.0,29.91,NNW,340,1.0,8.0,80,0.00,,,0.02,,2013-06-03 05:32:00,
2013-06-03 01:43:00,55.0,49.0,29.91,NNW,340,1.0,8.0,80,0.00,,,0.02,,2013-06-03 05:43:00,
2013-06-03 01:52:00,55.0,49.0,29.91,NNW,340,4.0,8.0,81,0.00,,,0.02,,2013-06-03 05:52:00,
2013-06-03 02:02:00,55.0,50.0,29.91,NNW,342,3.0,9.0,82,0.00,,,0.02,,2013-06-03 06:02:00,
2013-06-03 02:12:00,55.0,50.0,29.91,NNW,342,3.0,9.0,82,0.00,,,0.02,,2013-06-03 06:12:00,
2013-06-03 02:22:00,55.0,50.0,29.92,NNW,331,3.0,6.0,83,0.00,,,0.00,,2013-06-03 06:22:00,
2013-06-03 02:32:00,54.0,50.0,29.92,NNW,342,3.0,9.0,85,0.00,,,0.00,,2013-06-03 06:32:00,
2013-06-03 02:42:00,54.0,50.0,29.92,NNW,342,3.0,9.0,85,0.00,,,0.00,,2013-06-03 06:42:00,
2013-06-03 02:53:00,54.0,50.0,29.92,NW,319,4.0,8.0,87,0.00,,,0.00,,2013-06-03 06:53:00,
2013-06-03 03:02:00,54.0,50.0,29.92,North,350,1.0,8.0,87,0.00,,,0.00,,2013-06-03 07:02:00,
2013-06-03 03:12:00,54.0,50.0,29.92,North,350,1.0,8.0,87,0.00,,,0.00,,2013-06-03 07:12:00,
2013-06-03 03:22:00,54.0,50.0,29.92,NNW,344,0.0,3.0,87,0.00,,,0.00,,2013-06-03 07:22:00,
2013-06-03 03:32:00,53.0,49.0,29.93,NNW,342,0.0,6.0,85,0.00,,,0.00,,2013-06-03 07:32:00,
2013-06-03 03:42:00,53.0,49.0,29.93,NNW,342,0.0,6.0,85,0.00,,,0.00,,2013-06-03 07:42:00,
2013-06-03 03:52:00,53.0,47.0,29.94,North,355,3.0,8.0,80,0.00,,,0.00,,2013-06-03 07:52:00,
2013-06-03 04:02:00,52.0,46.0,29.93,ENE,67,0.0,7.0,80,0.00,,,0.00,,2013-06-03 08:02:00,
2013-06-03 04:12:00,52.0,46.0,29.93,ENE,67,0.0,7.0,80,0.00,,,0.00,,2013-06-03 08:12:00,
2013-06-03 04:22:00,52.0,46.0,29.93,NNE,16,3.0,9.0,81,0.00,,,0.00,,2013-06-03 08:22:00,
2013-06-03 04:32:00,52.0,47.0,29.94,NNW,342,2.0,6.0,82,0.00,,,0.00,,2013-06-03 08:32:00,
2013-06-03 04:42:00,52.0,47.0,29.94,NNW,342,2.0,6.0,82,0.00,,,0.00,,2013-06-03 08:42:00,
2013-06-03 04:52:00,52.0,47.0,29.94,North,9,2.0,7.0,82,0.00,,,0.00,,2013-06-03 08:52:00,
2013-06-03 05:02:00,52.0,47.0,29.94,NNE,28,0.0,7.0,82,0.00,,,0.00,,2013-06-03 09:02:00,
2013-06-03 05:12:00,52.0,47.0,29.94,NNE,28,0.0,7.0,82,0.00,,,0.00,,2013-06-03 09:12:00,
2013-06-03 05:22:00,52.0,47.0,29.95,WNW,300,2.0,9.0,82,0.00,,,0.00,,2013-06-03 09:22:00,
2013-06-03 05:33:00,52.0,47.0,29.95,NE,46,0.0,6.0,83,0.00,,,0.00,,2013-06-03 09:33:00,
2013-06-03 05:43:00,52.0,47.0,29.95,NE,46,0.0,6.0,83,0.00,,,0.00,,2013-06-03 09:43:00,
2013-06-03 05:53:00,51.0,46.0,29.96,ENE,65,1.0,6.0,83,0.00,,,0.00,,2013-06-03 09:53:00,
2013-06-03 06:03:00,51.0,46.0,29.97,NNW,348,1.0,5.0,82,0.00,,,0.00,,2013-06-03 10:03:00,
2013-06-03 06:13:00,51.0,46.0,29.97,NNW,348,1.0,5.0,82,0.00,,,0.00,,2013-06-03 10:13:00,
2013-06-03 06:22:00,51.0,46.0,29.97,ENE,66,3.0,7.0,82,0.00,,,0.00,,2013-06-03 10:22:00,
2013-06-03 06:33:00,51.0,46.0,29.97,North,355,1.0,6.0,83,0.00,,,0.00,,2013-06-03 10:33:00,
2013-06-03 06:42:00,51.0,46.0,29.97,North,355,1.0,6.0,83,0.00,,,0.00,,2013-06-03 10:42:00,
2013-06-03 06:53:00,51.0,46.0,29.98,NE,55,1.0,7.0,83,0.00,,,0.00,,2013-06-03 10:53:00,
2013-06-03 07:02:00,51.0,46.0,29.98,NE,49,1.0,6.0,82,0.00,,,0.00,,2013-06-03 11:02:00,
2013-06-03 07:12:00,51.0,46.0,29.98,NE,49,1.0,6.0,82,0.00,,,0.00,,2013-06-03 11:12:00,
2013-06-03 07:22:00,51.0,45.0,29.98,NNE,13,0.0,7.0,81,0.00,,,0.00,,2013-06-03 11:22:00,
2013-06-03 07:32:00,51.0,45.0,29.98,NNE,19,3.0,7.0,80,0.00,,,0.00,,2013-06-03 11:32:00,
2013-06-03 07:42:00,51.0,45.0,29.98,NNE,19,3.0,7.0,80,0.00,,,0.00,,2013-06-03 11:42:00,
2013-06-03 07:52:00,51.0,45.0,29.98,North,5,1.0,5.0,80,0.00,,,0.00,,2013-06-03 11:52:00,
2013-06-03 08:02:00,50.0,44.0,29.98,NNW,345,2.0,6.0,80,0.00,,,0.00,,2013-06-03 12:02:00,
2013-06-03 08:12:00,50.0,44.0,29.98,NNW,345,2.0,6.0,80,0.00,,,0.00,,2013-06-03 12:12:00,
2013-06-03 08:22:00,50.0,44.0,29.99,North,5,2.0,7.0,80,0.00,,,0.00,,2013-06-03 12:22:00,
2013-06-03 08:32:00,50.0,44.0,29.99,NNE,18,0.0,8.0,80,0.00,,,0.00,,2013-06-03 12:32:00,
2013-06-03 08:42:00,50.0,44.0,29.99,NNE,18,0.0,8.0,80,0.00,,,0.00,,2013-06-03 12:42:00,
2013-06-03 08:52:00,50.0,44.0,30.00,NNE,12,3.0,9.0,80,0.00,,,0.00,,2013-06-03 12:52:00,
2013-06-03 09:02:00,50.0,44.0,30.00,North,5,3.0,7.0,81,0.00,,,0.00,,2013-06-03 13:02:00,
2013-06-03 09:12:00,50.0,44.0,30.00,North,5,3.0,7.0,81,0.00,,,0.00,,2013-06-03 13:12:00,
2013-06-03 09:22:00,50.0,44.0,30.01,NNE,28,2.0,7.0,81,0.00,,,0.00,,2013-06-03 13:22:00,
2013-06-03 09:32:00,50.0,45.0,30.01,NNE,13,1.0,8.0,82,0.00,,,0.00,,2013-06-03 13:32:00,
2013-06-03 09:43:00,50.0,45.0,30.01,NNE,13,1.0,8.0,82,0.00,,,0.00,,2013-06-03 13:43:00,
2013-06-03 09:53:00,51.0,45.0,30.01,NNE,19,4.0,8.0,81,0.00,,,0.00,,2013-06-03 13:53:00,
2013-06-03 10:02:00,51.0,45.0,30.01,NNE,13,2.0,7.0,81,0.00,,,0.00,,2013-06-03 14:02:00,
2013-06-03 10:13:00,51.0,45.0,30.01,NNE,13,2.0,7.0,81,0.00,,,0.00,,2013-06-03 14:13:00,
2013-06-03 10:22:00,51.0,45.0,30.01,NW,306,2.0,7.0,81,0.00,,,0.00,,2013-06-03 14:22:00,
2013-06-03 10:32:00,52.0,45.0,30.01,North,5,3.0,7.0,78,0.00,,,0.00,,2013-06-03 14:32:00,
2013-06-03 10:42:00,52.0,45.0,30.01,North,5,3.0,7.0,78,0.00,,,0.00,,2013-06-03 14:42:00,
2013-06-03 10:52:00,52.0,45.0,30.02,NW,326,3.0,7.0,77,0.00,,,0.00,,2013-06-03 14:52:00,
2013-06-03 11:02:00,53.0,45.0,30.02,NNE,13,1.0,10.0,75,0.00,,,0.00,,2013-06-03 15:02:00,
2013-06-03 11:12:00,53.0,45.0,30.02,NNE,13,1.0,10.0,75,0.00,,,0.00,,2013-06-03 15:12:00,
2013-06-03 11:22:00,54.0,46.0,30.01,NNW,329,5.0,9.0,74,0.00,,,0.00,,2013-06-03 15:22:00,
2013-06-03 11:33:00,54.0,46.0,30.02,NNW,344,4.0,7.0,73,0.00,,,0.00,,2013-06-03 15:33:00,
2013-06-03 11:43:00,54.0,46.0,30.02,NNW,344,4.0,7.0,73,0.00,,,0.00,,2013-06-03 15:43:00,
2013-06-03 11:53:00,54.0,46.0,30.02,NNW,342,4.0,8.0,73,0.00,,,0.00,,2013-06-03 15:53:00,
2013-06-03 12:03:00,55.0,46.0,30.02,West,269,4.0,9.0,72,0.00,,,0.00,,2013-06-03 16:03:00,
2013-06-03 12:13:00,55.0,46.0,30.02,West,269,4.0,9.0,72,0.00,,,0.00,,2013-06-03 16:13:00,
2013-06-03 12:23:00,55.0,46.0,30.03,NW,321,6.0,10.0,71,0.00,,,0.00,,2013-06-03 16:23:00,
2013-06-03 12:33:00,55.0,45.0,30.03,West,278,4.0,13.0,70,0.00,,,0.00,,2013-06-03 16:33:00,
2013-06-03 12:42:00,55.0,45.0,30.03,NNE,33,4.0,11.0,70,0.00,,,0.00,,2013-06-03 16:42:00,
2013-06-03 12:53:00,55.0,45.0,30.03,NNE,33,4.0,11.0,70,0.00,,,0.00,,2013-06-03 16:53:00,
2013-06-03 13:02:00,54.0,44.0,30.03,NW,323,4.0,12.0,70,0.00,,,0.00,,2013-06-03 17:02:00,
2013-06-03 13:12:00,54.0,44.0,30.03,NW,323,4.0,12.0,70,0.00,,,0.00,,2013-06-03 17:12:00,
2013-06-03 13:22:00,55.0,45.0,30.03,North,360,6.0,12.0,70,0.00,,,0.00,,2013-06-03 17:22:00,
2013-06-03 13:33:00,55.0,46.0,30.03,NW,307,5.0,10.0,71,0.00,,,0.00,,2013-06-03 17:33:00,
2013-06-03 13:42:00,55.0,46.0,30.03,NW,307,5.0,10.0,71,0.00,,,0.00,,2013-06-03 17:42:00,
2013-06-03 13:52:00,55.0,46.0,30.03,NW,309,7.0,14.0,71,0.00,,,0.00,,2013-06-03 17:52:00,
2013-06-03 14:02:00,54.0,44.0,30.03,NNW,344,6.0,10.0,69,0.00,,,0.00,,2013-06-03 18:02:00,
2013-06-03 14:12:00,54.0,44.0,30.03,NNW,344,6.0,10.0,69,0.00,,,0.00,,2013-06-03 18:12:00,
2013-06-03 14:22:00,54.0,44.0,30.03,NE,42,3.0,10.0,68,0.00,,,0.00,,2013-06-03 18:22:00,
2013-06-03 14:32:00,55.0,44.0,30.03,North,5,5.0,12.0,66,0.00,,,0.00,,2013-06-03 18:32:00,
2013-06-03 14:43:00,55.0,44.0,30.03,North,5,5.0,12.0,66,0.00,,,0.00,,2013-06-03 18:43:00,
2013-06-03 14:53:00,55.0,43.0,30.03,NW,314,3.0,10.0,64,0.00,,,0.00,,2013-06-03 18:53:00,
2013-06-03 15:03:00,55.0,43.0,30.02,NNE,30,5.0,13.0,63,0.00,,,0.00,,2013-06-03 19:03:00,
2013-06-03 15:12:00,55.0,43.0,30.02,NNE,30,5.0,13.0,63,0.00,,,0.00,,2013-06-03 19:12:00,
2013-06-03 15:23:00,55.0,42.0,30.03,NNW,327,6.0,11.0,62,0.00,,,0.00,,2013-06-03 19:23:00,
2013-06-03 15:32:00,56.0,41.0,30.03,NNW,345,5.0,10.0,57,0.00,,,0.00,,2013-06-03 19:32:00,
2013-06-03 15:42:00,56.0,41.0,30.03,NNW,345,5.0,10.0,57,0.00,,,0.00,,2013-06-03 19:42:00,
2013-06-03 15:53:00,56.0,40.0,30.02,NNW,329,5.0,11.0,55,0.00,,,0.00,,2013-06-03 19:53:00,
2013-06-03 16:02:00,56.0,40.0,30.02,NNE,27,5.0,11.0,55,0.00,,,0.00,,2013-06-03 20:02:00,
2013-06-03 16:12:00,56.0,40.0,30.02,NNE,27,5.0,11.0,55,0.00,,,0.00,,2013-06-03 20:12:00,
2013-06-03 16:22:00,56.0,38.0,30.02,NW,313,7.0,12.0,51,0.00,,,0.00,,2013-06-03 20:22:00,
2013-06-03 16:33:00,57.0,39.0,30.01,North,360,6.0,13.0,50,0.00,,,0.00,,2013-06-03 20:33:00,
2013-06-03 16:43:00,57.0,39.0,30.01,North,360,6.0,13.0,50,0.00,,,0.00,,2013-06-03 20:43:00,
2013-06-03 16:52:00,57.0,40.0,30.01,NNE,22,4.0,10.0,52,0.00,,,0.00,,2013-06-03 20:52:00,
2013-06-03 17:02:00,57.0,37.0,30.01,WNW,300,5.0,13.0,47,0.00,,,0.00,,2013-06-03 21:02:00,
2013-06-03 17:12:00,57.0,37.0,30.01,WNW,300,5.0,13.0,47,0.00,,,0.00,,2013-06-03 21:12:00,
2013-06-03 17:22:00,58.0,37.0,30.01,NE,36,4.0,9.0,46,0.00,,,0.00,,2013-06-03 21:22:00,
2013-06-03 17:33:00,58.0,37.0,30.01,North,355,3.0,8.0,45,0.00,,,0.00,,2013-06-03 21:33:00,
2013-06-03 17:43:00,58.0,37.0,30.01,North,355,3.0,8.0,45,0.00,,,0.00,,2013-06-03 21:43:00,
2013-06-03 17:53:00,58.0,36.0,30.00,NNW,336,3.0,9.0,44,0.00,,,0.00,,2013-06-03 21:53:00,
2013-06-03 18:03:00,59.0,38.0,30.01,NNE,30,3.0,10.0,45,0.00,,,0.00,,2013-06-03 22:03:00,
2013-06-03 18:12:00,59.0,38.0,30.01,NNE,30,3.0,10.0,45,0.00,,,0.00,,2013-06-03 22:12:00,
2013-06-03 18:22:00,59.0,41.0,30.01,NNE,14,5.0,8.0,52,0.00,,,0.00,,2013-06-03 22:22:00,
2013-06-03 18:33:00,58.0,40.0,30.01,NNE,30,3.0,7.0,52,0.00,,,0.00,,2013-06-03 22:33:00,
2013-06-03 18:42:00,58.0,40.0,30.01,NNE,30,3.0,7.0,52,0.00,,,0.00,,2013-06-03 22:42:00,
2013-06-03 18:53:00,59.0,42.0,30.01,NNW,329,2.0,7.0,53,0.00,,,0.00,,2013-06-03 22:53:00,
2013-06-03 19:02:00,58.0,41.0,30.01,NE,51,4.0,8.0,53,0.00,,,0.00,,2013-06-03 23:02:00,
2013-06-03 19:12:00,58.0,41.0,30.01,NE,51,4.0,8.0,53,0.00,,,0.00,,2013-06-03 23:12:00,
2013-06-03 19:23:00,58.0,41.0,30.02,NNE,24,2.0,8.0,54,0.00,,,0.00,,2013-06-03 23:23:00,
2013-06-03 19:32:00,58.0,41.0,30.02,NNE,30,3.0,6.0,53,0.00,,,0.00,,2013-06-03 23:32:00,
2013-06-03 19:42:00,58.0,41.0,30.02,NNE,30,3.0,6.0,53,0.00,,,0.00,,2013-06-03 23:42:00,
2013-06-03 19:52:00,58.0,41.0,30.03,NE,34,2.0,6.0,54,0.00,,,0.00,,2013-06-03 23:52:00,
2013-06-03 20:02:00,57.0,41.0,30.03,NE,37,2.0,6.0,56,0.00,,,0.00,,2013-06-04 00:02:00,
2013-06-03 20:12:00,57.0,41.0,30.03,NE,37,2.0,6.0,56,0.00,,,0.00,,2013-06-04 00:12:00,
2013-06-03 20:22:00,57.0,42.0,30.04,NE,39,0.0,3.0,57,0.00,,,0.00,,2013-06-04 00:22:00,
2013-06-03 20:32:00,56.0,42.0,30.03,NE,40,0.0,2.0,59,0.00,,,0.00,,2013-06-04 00:32:00,
2013-06-03 20:42:00,56.0,42.0,30.03,NE,40,0.0,2.0,59,0.00,,,0.00,,2013-06-04 00:42:00,
2013-06-03 20:52:00,56.0,42.0,30.04,NE,40,0.0,1.0,60,0.00,,,0.00,,2013-06-04 00:52:00,
2013-06-03 21:02:00,56.0,43.0,30.03,NE,40,0.0,1.0,62,0.00,,,0.00,,2013-06-04 01:02:00,
2013-06-03 21:12:00,56.0,43.0,30.03,NE,40,0.0,1.0,62,0.00,,,0.00,,2013-06-04 01:12:00,
2013-06-03 21:22:00,55.0,43.0,30.03,NE,40,0.0,0.0,65,0.00,,,0.00,,2013-06-04 01:22:00,
2013-06-03 21:32:00,54.0,44.0,30.04,NE,40,0.0,0.0,68,0.00,,,0.00,,2013-06-04 01:32:00,
2013-06-03 21:42:00,54.0,44.0,30.04,NE,40,0.0,0.0,68,0.00,,,0.00,,2013-06-04 01:42:00,
2013-06-03 21:53:00,53.0,44.0,30.04,NE,40,0.0,1.0,71,0.00,,,0.00,,2013-06-04 01:53:00,
2013-06-03 22:02:00,52.0,43.0,30.05,NE,40,0.0,0.0,72,0.00,,,0.00,,2013-06-04 02:02:00,
2013-06-03 22:12:00,52.0,43.0,30.05,NE,40,0.0,0.0,72,0.00,,,0.00,,2013-06-04 02:12:00,
2013-06-03 22:22:00,52.0,44.0,30.06,NE,40,0.0,0.0,75,0.00,,,0.00,,2013-06-04 02:22:00,
2013-06-03 22:32:00,51.0,44.0,30.07,NE,40,0.0,1.0,76,0.00,,,0.00,,2013-06-04 02:32:00,
2013-06-03 22:42:00,51.0,44.0,30.07,NE,40,0.0,1.0,76,0.00,,,0.00,,2013-06-04 02:42:00,
2013-06-03 22:52:00,51.0,44.0,30.07,NE,40,0.0,1.0,77,0.00,,,0.00,,2013-06-04 02:52:00,
2013-06-03 23:02:00,51.0,44.0,30.07,NE,40,0.0,1.0,77,0.00,,,0.00,,2013-06-04 03:02:00,
2013-06-03 23:12:00,51.0,44.0,30.07,NE,40,0.0,1.0,77,0.00,,,0.00,,2013-06-04 03:12:00,
2013-06-03 23:22:00,50.0,44.0,30.08,NE,40,0.0,0.0,79,0.00,,,0.00,,2013-06-04 03:22:00,
2013-06-03 23:32:00,49.0,43.0,30.08,NE,40,0.0,2.0,81,0.00,,,0.00,,2013-06-04 03:32:00,
2013-06-03 23:43:00,49.0,43.0,30.08,NE,40,0.0,2.0,81,0.00,,,0.00,,2013-06-04 03:43:00,
2013-06-03 23:54:00,48.0,43.0,30.09,NE,40,0.0,1.0,84,0.00,,,0.00,,2013-06-04 03:54:00,